Location: Fishcreek Rd Observing Site
(41.1865°N, 81.4271°W)
Time: 08:01:57
(UTC-04:00)

Iridium 75 - Visible Passes

Search period start: 21 August 2017 00:00
Search period end: 31 August 2017 00:00
Orbit: 776 x 779 km, 86.4° (Epoch: 20 August)

Date Brightness Start Highest point End Pass type
(mag) Time Alt. Az. Time Alt. Az. Time Alt. Az.
21 Aug 7.1 03:38:26 10° NNE 03:43:20 39° E 03:44:59 31° ESE visible
21 Aug 7.2 05:19:43 10° NNW 05:23:46 23° W 05:25:25 20° WSW visible
22 Aug 8.0 03:05:33 10° NNE 03:09:35 22° ENE 03:11:02 20° E visible
22 Aug 6.4 04:45:35 10° NNW 04:50:28 42° W 04:51:28 38° WSW visible
23 Aug 8.6 02:33:41 10° NE 02:35:42 12° ENE 02:37:07 11° E visible
23 Aug 5.9 04:11:49 10° N 04:17:03 78° W 04:17:33 70° SW visible
24 Aug 6.4 03:38:22 10° N 03:43:31 57° E 03:43:40 57° E visible
24 Aug 7.6 05:20:33 10° NW 05:23:41 16° WNW 05:24:06 16° W visible
25 Aug 7.5 03:05:13 10° NNE 03:09:48 31° E 03:09:48 31° E visible
25 Aug 7.0 04:46:00 10° NNW 04:50:15 29° WNW 04:50:15 29° WNW visible
26 Aug 8.3 02:32:35 10° NNE 02:35:58 18° ENE 02:35:58 18° ENE visible
26 Aug 6.4 04:12:02 10° NNW 04:16:24 49° WNW 04:16:24 49° WNW visible
27 Aug 6.5 03:38:25 10° N 03:42:35 58° N 03:42:35 58° N visible
27 Aug 8.1 05:22:11 10° WNW 05:23:02 11° WNW 05:23:02 11° WNW visible
28 Aug 7.3 03:05:03 10° N 03:08:47 38° NE 03:08:47 38° NE visible
28 Aug 7.6 04:46:37 10° NNW 04:49:14 19° WNW 04:49:14 19° WNW visible
29 Aug 8.1 02:32:04 10° NNE 02:35:01 22° NE 02:35:01 22° NE visible
29 Aug 7.2 04:12:22 10° NNW 04:15:28 29° NW 04:15:28 29° NW visible
30 Aug 8.7 01:59:50 10° NE 02:01:14 13° ENE 02:01:14 13° ENE visible
30 Aug 7.1 03:38:33 10° N 03:41:41 37° NNW 03:41:41 37° NNW visible
